Location: Boulder Knolls Observatory
(33.2250°N, 117.1147°W)
Time: 12:23:04
(UTC-08:00)

OTV 5 (USA 277) - Visible Passes

Search period start: 24 November 2017 00:00
Search period end: 04 December 2017 00:00
Orbit: 404 x 417 km, 43.0° (Epoch: 07 September)

Date Brightness Start Highest point End Pass type
(mag) Time Alt. Az. Time Alt. Az. Time Alt. Az.
24 Nov ? 04:57:46 14° SSW 04:57:46 14° SSW 04:58:56 10° S visible
28 Nov ? 18:08:32 10° S 18:10:16 17° SSE 18:10:16 17° SSE visible
29 Nov ? 17:19:21 10° SSE 17:19:57 10° SE 17:20:32 10° SE visible
29 Nov ? 18:53:29 10° WSW 18:54:42 21° WSW 18:54:42 21° WSW visible
30 Nov ? 18:02:33 10° SW 18:05:49 50° SE 18:06:17 46° ESE visible
01 Dec ? 17:11:51 10° SSW 17:14:49 29° SE 17:17:49 10° E visible
01 Dec ? 18:48:55 10° W 18:50:35 24° WNW 18:50:35 24° WNW visible
02 Dec ? 17:57:39 10° WSW 18:00:57 57° NNW 18:02:02 36° NNE visible
03 Dec ? 17:06:31 10° WSW 17:09:53 88° SSE 17:13:15 10° ENE visible
03 Dec ? 18:44:49 10° WNW 18:46:12 17° NW 18:46:12 17° NW visible
